REU9931 HAAB-FMEE

Flight info

Callsign REU9931
Flight time 4h 21m
Altitude 37000
Route IMKIT3A IMKIT UT129 ALEMU UN301 MOV UM310 UVUKO UL431 EGPET UT913 KINAN UB790 DOBUT DOBUT2R
Aircraft B77W/H-SDE1E2E3FGHIJ2J3J4J5M1RWXY/LB1D1

Departure

Time 2026-04-30 05:12
Airport Addis Ababa Bole International Airport (HAAB)

Arrival

Time 2026-04-30 09:33
Airport Roland Garros Airport (FMEE)
Time Latitude Longitude Altitude Speed Heading
2026-04-30 04:37 8.98246 38.79744 7622 ft 0 kts 343°
2026-04-30 05:01 8.98239 38.79746 7622 ft 3 kts 340°
2026-04-30 05:02 8.98222 38.79753 7624 ft 3 kts 323°
2026-04-30 05:02 8.98209 38.79765 7626 ft 3 kts 304°
2026-04-30 05:02 8.98200 38.79781 7627 ft 3 kts 285°
2026-04-30 05:02 8.98197 38.79800 7628 ft 3 kts 270°
2026-04-30 05:03 8.98198 38.79820 7625 ft 3 kts 258°
2026-04-30 05:03 8.98200 38.79831 7627 ft 0 kts 253°
2026-04-30 05:06 8.98188 38.79783 7622 ft 7 kts 254°
2026-04-30 05:06 8.98157 38.79751 7622 ft 7 kts 179°
2026-04-30 05:06 8.98100 38.79765 7622 ft 9 kts 163°
2026-04-30 05:06 8.98016 38.79787 7622 ft 14 kts 166°
2026-04-30 05:07 8.97922 38.79815 7623 ft 14 kts 163°
2026-04-30 05:07 8.97845 38.79786 7622 ft 12 kts 246°
2026-04-30 05:07 8.97822 38.79690 7621 ft 18 kts 258°
2026-04-30 05:07 8.97787 38.79563 7622 ft 20 kts 251°
2026-04-30 05:08 8.97750 38.79431 7621 ft 20 kts 253°
2026-04-30 05:08 8.97710 38.79299 7620 ft 20 kts 252°
2026-04-30 05:08 8.97668 38.79152 7622 ft 24 kts 254°
2026-04-30 05:08 8.97623 38.78991 7624 ft 24 kts 256°
2026-04-30 05:09 8.97577 38.78833 7625 ft 24 kts 250°
2026-04-30 05:09 8.97527 38.78674 7626 ft 24 kts 253°
2026-04-30 05:09 8.97477 38.78515 7626 ft 24 kts 250°
2026-04-30 05:09 8.97435 38.78354 7627 ft 24 kts 264°
2026-04-30 05:10 8.97380 38.78278 7626 ft 10 kts 173°
2026-04-30 05:10 8.97314 38.78314 7623 ft 12 kts 144°
2026-04-30 05:10 8.97254 38.78373 7620 ft 11 kts 119°
2026-04-30 05:10 8.97254 38.78428 7621 ft 3 kts 75°
2026-04-30 05:11 8.97255 38.78431 7621 ft 0 kts 76°
2026-04-30 05:11 8.97314 38.78645 7621 ft 71 kts 75°
2026-04-30 05:11 8.97535 38.79390 7621 ft 147 kts 73°
2026-04-30 05:11 8.97884 38.80601 7653 ft 204 kts 68°
2026-04-30 05:12 8.98193 38.81988 8356 ft 195 kts 84°
2026-04-30 05:12 8.97922 38.83311 9075 ft 199 kts 115°
2026-04-30 05:12 8.96897 38.84303 9354 ft 218 kts 154°
2026-04-30 05:12 8.95314 38.84551 9390 ft 241 kts 174°
2026-04-30 05:13 8.93609 38.84510 9772 ft 249 kts 172°
2026-04-30 05:13 8.91842 38.84605 10145 ft 258 kts 168°
2026-04-30 05:13 8.90028 38.84706 10519 ft 265 kts 174°
2026-04-30 05:13 8.88811 38.84541 10749 ft 269 kts 192°
2026-04-30 05:14 8.87044 38.83812 11059 ft 283 kts 199°
2026-04-30 05:14 8.85186 38.82971 11201 ft 301 kts 195°
2026-04-30 05:14 8.83167 38.82197 11340 ft 319 kts 194°
2026-04-30 05:14 8.81019 38.81430 11471 ft 337 kts 194°
2026-04-30 05:15 8.78738 38.80630 11601 ft 353 kts 200°
2026-04-30 05:15 8.75585 38.79432 11830 ft 379 kts 195°
2026-04-30 05:15 8.73841 38.78951 12201 ft 387 kts 189°
2026-04-30 05:15 8.71140 38.78615 12924 ft 394 kts 179°
2026-04-30 05:16 8.68402 38.78697 13499 ft 396 kts 174°
2026-04-30 05:16 8.65607 38.78882 14106 ft 406 kts 174°
2026-04-30 05:16 8.62781 38.79078 14855 ft 408 kts 174°
2026-04-30 05:16 8.59945 38.79264 15685 ft 409 kts 174°
2026-04-30 05:17 8.57090 38.79436 16429 ft 413 kts 174°
2026-04-30 05:17 8.54208 38.79593 17106 ft 417 kts 175°
2026-04-30 05:17 8.51298 38.79734 17803 ft 418 kts 175°
2026-04-30 05:17 8.48375 38.79866 18284 ft 424 kts 175°
2026-04-30 05:18 8.45414 38.79987 18866 ft 428 kts 176°
2026-04-30 05:18 8.42432 38.80095 19511 ft 430 kts 176°
2026-04-30 05:18 8.39433 38.80196 20073 ft 434 kts 176°
2026-04-30 05:18 8.36431 38.80300 20586 ft 439 kts 176°
2026-04-30 05:19 8.33369 38.80417 21152 ft 442 kts 176°
2026-04-30 05:19 8.30282 38.80541 21699 ft 446 kts 176°
2026-04-30 05:19 8.27160 38.80672 22189 ft 451 kts 176°
2026-04-30 05:19 8.24009 38.80803 22704 ft 455 kts 176°
2026-04-30 05:20 8.20836 38.80935 23220 ft 458 kts 176°
2026-04-30 05:20 8.17644 38.81066 23729 ft 461 kts 176°
2026-04-30 05:20 8.14419 38.81196 24134 ft 465 kts 176°
2026-04-30 05:20 8.11166 38.81326 24517 ft 469 kts 176°
2026-04-30 05:21 8.07887 38.81455 24905 ft 473 kts 176°
2026-04-30 05:21 8.04587 38.81581 25315 ft 476 kts 176°
2026-04-30 05:21 8.01261 38.81709 25711 ft 479 kts 176°
2026-04-30 05:21 7.97922 38.81838 26107 ft 482 kts 176°
2026-04-30 05:22 7.94603 38.81968 26489 ft 484 kts 176°
2026-04-30 05:22 7.91217 38.82100 26865 ft 487 kts 176°
2026-04-30 05:22 7.87812 38.82234 27227 ft 491 kts 176°
2026-04-30 05:22 7.84385 38.82369 27587 ft 494 kts 176°
2026-04-30 05:23 7.80941 38.82504 27955 ft 497 kts 176°
2026-04-30 05:23 7.77477 38.82643 28307 ft 500 kts 176°
2026-04-30 05:23 7.73989 38.82783 28637 ft 503 kts 176°
2026-04-30 05:23 7.70481 38.82922 28956 ft 505 kts 176°
2026-04-30 05:24 7.66952 38.83060 29263 ft 508 kts 176°
2026-04-30 05:24 7.63414 38.83198 29560 ft 510 kts 176°
2026-04-30 05:24 7.59850 38.83334 29848 ft 513 kts 176°
2026-04-30 05:24 7.56272 38.83466 30120 ft 515 kts 176°
2026-04-30 05:25 7.52681 38.83601 30386 ft 517 kts 176°
2026-04-30 05:25 7.49081 38.83743 30703 ft 516 kts 176°
2026-04-30 05:25 7.45545 38.83959 31106 ft 514 kts 172°
2026-04-30 05:25 7.42013 38.84480 31510 ft 511 kts 167°
2026-04-30 05:26 7.38564 38.85301 31901 ft 506 kts 161°
2026-04-30 05:26 7.35198 38.86349 32110 ft 508 kts 160°
2026-04-30 05:26 7.31825 38.87443 32368 ft 509 kts 160°
2026-04-30 05:26 7.28465 38.88537 32771 ft 507 kts 160°
2026-04-30 05:27 7.25112 38.89615 33198 ft 504 kts 160°
2026-04-30 05:27 7.21764 38.90675 33566 ft 503 kts 161°
2026-04-30 05:27 7.18427 38.91719 33915 ft 502 kts 161°
2026-04-30 05:27 7.15084 38.92756 34276 ft 501 kts 161°
2026-04-30 05:28 7.11759 38.93781 34612 ft 499 kts 161°
2026-04-30 05:28 7.08433 38.94804 34941 ft 497 kts 161°
2026-04-30 05:28 7.05166 38.95810 35177 ft 498 kts 161°
2026-04-30 05:28 7.01841 38.96832 35210 ft 502 kts 161°
2026-04-30 05:29 6.95165 38.98870 35247 ft 498 kts 162°
2026-04-30 05:29 6.88575 39.00899 35240 ft 493 kts 161°
2026-04-30 05:30 6.82014 39.02940 35241 ft 493 kts 161°
2026-04-30 05:30 6.75486 39.04959 35230 ft 493 kts 161°
2026-04-30 05:31 6.68882 39.06997 35227 ft 494 kts 161°
2026-04-30 05:31 6.62345 39.09013 35213 ft 495 kts 161°
2026-04-30 05:32 6.55737 39.11049 35200 ft 497 kts 161°
2026-04-30 05:32 6.49119 39.13085 35185 ft 497 kts 161°
2026-04-30 05:33 6.42491 39.15127 35180 ft 498 kts 161°
2026-04-30 05:33 6.35851 39.17171 35158 ft 499 kts 161°
2026-04-30 05:34 6.29259 39.19201 35144 ft 498 kts 161°
2026-04-30 05:34 6.22631 39.21240 35138 ft 498 kts 161°
2026-04-30 05:35 6.15994 39.23282 35133 ft 497 kts 161°
2026-04-30 05:35 6.09371 39.25317 35122 ft 497 kts 161°
2026-04-30 05:36 6.02759 39.27355 35120 ft 497 kts 161°
2026-04-30 05:36 5.96152 39.29383 35120 ft 496 kts 161°
2026-04-30 05:37 5.89585 39.31394 35111 ft 496 kts 161°
2026-04-30 05:37 5.82981 39.33418 35112 ft 496 kts 161°
2026-04-30 05:38 5.76378 39.35440 35113 ft 496 kts 161°
2026-04-30 05:38 5.69767 39.37456 35115 ft 496 kts 161°
2026-04-30 05:39 5.63153 39.39271 35097 ft 495 kts 168°
2026-04-30 05:39 5.56347 39.40432 35112 ft 497 kts 169°
2026-04-30 05:40 5.49494 39.41555 35108 ft 500 kts 169°
2026-04-30 05:40 5.42624 39.42701 35105 ft 501 kts 168°
2026-04-30 05:41 5.35744 39.43857 35102 ft 501 kts 168°
2026-04-30 05:41 5.28875 39.45012 35101 ft 500 kts 169°
2026-04-30 05:42 5.22031 39.46163 35094 ft 498 kts 168°
2026-04-30 05:42 5.15233 39.47308 35086 ft 497 kts 168°
2026-04-30 05:43 5.08411 39.48458 35086 ft 497 kts 168°
2026-04-30 05:43 5.01597 39.49603 35085 ft 496 kts 168°
2026-04-30 05:44 4.94776 39.50746 35081 ft 497 kts 168°
2026-04-30 05:44 4.87956 39.51890 35081 ft 497 kts 168°
2026-04-30 05:45 4.81115 39.53036 35081 ft 498 kts 169°
2026-04-30 05:45 4.74300 39.54174 35073 ft 499 kts 169°
2026-04-30 05:46 4.67444 39.55322 35077 ft 500 kts 168°
2026-04-30 05:46 4.60572 39.56477 35075 ft 500 kts 169°
2026-04-30 05:47 4.53705 39.57626 35076 ft 500 kts 169°
2026-04-30 05:47 4.46829 39.58773 35075 ft 500 kts 169°
2026-04-30 05:48 4.39960 39.59923 35079 ft 500 kts 169°
2026-04-30 05:48 4.33087 39.61072 35079 ft 500 kts 169°
2026-04-30 05:49 4.26263 39.62212 35083 ft 500 kts 169°
2026-04-30 05:49 4.19396 39.63356 35086 ft 500 kts 169°
2026-04-30 05:50 4.12524 39.64501 35085 ft 500 kts 169°
2026-04-30 05:50 4.05654 39.65632 35086 ft 500 kts 169°
2026-04-30 05:51 3.98782 39.66782 35082 ft 500 kts 168°
2026-04-30 05:51 3.91947 39.68081 35084 ft 500 kts 167°
2026-04-30 05:52 3.85118 39.69433 35090 ft 500 kts 167°
2026-04-30 05:52 3.78281 39.70753 35087 ft 500 kts 168°
2026-04-30 05:53 3.71495 39.72038 35090 ft 499 kts 168°
2026-04-30 05:53 3.64677 39.73323 35086 ft 497 kts 168°
2026-04-30 05:54 3.57881 39.74605 35082 ft 496 kts 168°
2026-04-30 05:54 3.51097 39.75887 35082 ft 495 kts 168°
2026-04-30 05:55 3.44335 39.77165 35086 ft 494 kts 168°
2026-04-30 05:55 3.37584 39.78438 35080 ft 493 kts 168°
2026-04-30 05:56 3.30849 39.79706 35078 ft 492 kts 168°
2026-04-30 05:56 3.24175 39.80966 35079 ft 491 kts 168°
2026-04-30 05:57 3.17467 39.82234 35074 ft 490 kts 168°
2026-04-30 05:57 3.10768 39.83498 35072 ft 490 kts 168°
2026-04-30 05:58 3.04064 39.84762 35075 ft 490 kts 168°
2026-04-30 05:58 2.97357 39.86026 35076 ft 491 kts 168°
2026-04-30 05:59 2.90625 39.87294 35074 ft 492 kts 168°
2026-04-30 05:59 2.85028 39.88347 35073 ft 492 kts 168°
2026-04-30 06:00 2.78290 39.89613 35070 ft 492 kts 168°
2026-04-30 06:00 2.71548 39.90878 35068 ft 492 kts 168°
2026-04-30 06:01 2.64800 39.92133 35061 ft 492 kts 168°
2026-04-30 06:01 2.58105 39.93390 35059 ft 492 kts 168°
2026-04-30 06:02 2.50237 39.94848 35060 ft 491 kts 168°
2026-04-30 06:02 2.44639 39.95855 35061 ft 491 kts 168°
2026-04-30 06:03 2.37912 39.97049 35058 ft 490 kts 168°
2026-04-30 06:03 2.31193 39.98240 35053 ft 490 kts 169°
2026-04-30 06:04 2.24475 39.99428 35057 ft 490 kts 169°
2026-04-30 06:05 2.14394 40.01211 35055 ft 491 kts 169°
2026-04-30 06:05 2.07710 40.02391 35049 ft 491 kts 169°
2026-04-30 06:06 2.00980 40.03582 35045 ft 491 kts 169°
2026-04-30 06:06 1.94255 40.04771 35049 ft 491 kts 169°
2026-04-30 06:07 1.87520 40.05956 35044 ft 491 kts 169°
2026-04-30 06:07 1.80798 40.07140 35044 ft 490 kts 169°
2026-04-30 06:08 1.74060 40.07983 35048 ft 488 kts 177°
2026-04-30 06:08 1.67266 40.07672 35055 ft 491 kts 184°
2026-04-30 06:09 1.60484 40.07033 35046 ft 494 kts 185°
2026-04-30 06:09 1.53630 40.06392 35044 ft 496 kts 184°
2026-04-30 06:10 1.46736 40.05769 35038 ft 497 kts 184°
2026-04-30 06:10 1.39837 40.05152 35035 ft 497 kts 184°
2026-04-30 06:11 1.32944 40.04536 35036 ft 497 kts 184°
2026-04-30 06:11 1.26057 40.03922 35033 ft 496 kts 185°
2026-04-30 06:12 1.19178 40.03306 35031 ft 496 kts 185°
2026-04-30 06:12 1.12315 40.02685 35030 ft 495 kts 185°
2026-04-30 06:13 1.05459 40.02062 35029 ft 494 kts 185°
2026-04-30 06:13 0.98652 40.01447 35028 ft 494 kts 185°
2026-04-30 06:14 0.91806 40.00856 35027 ft 494 kts 184°
2026-04-30 06:14 0.84942 40.00270 35030 ft 494 kts 184°
2026-04-30 06:15 0.78133 39.99668 35027 ft 494 kts 185°
2026-04-30 06:15 0.71283 39.99053 35026 ft 495 kts 185°
2026-04-30 06:16 0.64420 39.98436 35027 ft 494 kts 185°
2026-04-30 06:16 0.57563 39.97819 35027 ft 494 kts 185°
2026-04-30 06:17 0.50716 39.97202 35023 ft 494 kts 185°
2026-04-30 06:17 0.43872 39.96588 35028 ft 494 kts 185°
2026-04-30 06:18 0.37022 39.95974 35027 ft 494 kts 185°
2026-04-30 06:18 0.30164 39.95359 35032 ft 494 kts 185°
2026-04-30 06:19 0.23319 39.94744 35028 ft 494 kts 185°
2026-04-30 06:19 0.16521 39.94134 35029 ft 494 kts 185°
2026-04-30 06:20 0.09674 39.93518 35031 ft 494 kts 185°
2026-04-30 06:20 0.02809 39.92901 35031 ft 495 kts 184°
2026-04-30 06:21 -0.04054 39.92285 35031 ft 495 kts 184°
2026-04-30 06:21 -0.10908 39.91666 35031 ft 495 kts 184°
2026-04-30 06:22 -0.17769 39.91044 35031 ft 495 kts 184°
2026-04-30 06:22 -0.24624 39.90414 35026 ft 494 kts 184°
2026-04-30 06:23 -0.31441 39.89795 35020 ft 494 kts 184°
2026-04-30 06:23 -0.38289 39.89280 35012 ft 493 kts 182°
2026-04-30 06:24 -0.45139 39.88893 35006 ft 492 kts 182°
2026-04-30 06:24 -0.51972 39.88486 35008 ft 491 kts 182°
2026-04-30 06:25 -0.58793 39.88046 35013 ft 491 kts 182°
2026-04-30 06:25 -0.65536 39.87599 35021 ft 490 kts 182°
2026-04-30 06:26 -0.72285 39.87150 35028 ft 489 kts 182°
2026-04-30 06:26 -0.79076 39.86700 35034 ft 488 kts 182°
2026-04-30 06:27 -0.85862 39.86253 35035 ft 488 kts 182°
2026-04-30 06:27 -0.92639 39.85808 35036 ft 488 kts 182°
2026-04-30 06:28 -0.99425 39.85361 35033 ft 489 kts 182°
2026-04-30 06:28 -1.06235 39.84912 35039 ft 490 kts 181°
2026-04-30 06:29 -1.13001 39.84465 35034 ft 491 kts 181°
2026-04-30 06:29 -1.19815 39.84015 35030 ft 491 kts 181°
2026-04-30 06:30 -1.26635 39.83566 35033 ft 490 kts 181°
2026-04-30 06:30 -1.33456 39.83115 35024 ft 491 kts 181°
2026-04-30 06:31 -1.40266 39.82664 35036 ft 490 kts 181°
2026-04-30 06:31 -1.47083 39.82214 35023 ft 490 kts 181°
2026-04-30 06:32 -1.53854 39.81765 35025 ft 489 kts 181°
2026-04-30 06:32 -1.60638 39.81313 35029 ft 488 kts 181°
2026-04-30 06:33 -1.67428 39.80859 35024 ft 488 kts 181°
2026-04-30 06:33 -1.74206 39.80396 35024 ft 487 kts 181°
2026-04-30 06:34 -1.80967 39.79954 35020 ft 486 kts 181°
2026-04-30 06:34 -1.87699 39.79509 35024 ft 484 kts 181°
2026-04-30 06:35 -1.94412 39.79046 35020 ft 484 kts 181°
2026-04-30 06:35 -2.01094 39.78574 35020 ft 485 kts 181°
2026-04-30 06:36 -2.07823 39.78096 35020 ft 485 kts 181°
2026-04-30 06:36 -2.14567 39.77618 35017 ft 485 kts 181°
2026-04-30 06:37 -2.21310 39.77142 35022 ft 485 kts 181°
2026-04-30 06:37 -2.28055 39.76663 35019 ft 486 kts 181°
2026-04-30 06:38 -2.34808 39.76184 35014 ft 486 kts 181°
2026-04-30 06:38 -2.41556 39.75703 35019 ft 486 kts 181°
2026-04-30 06:39 -2.48310 39.75218 35022 ft 486 kts 181°
2026-04-30 06:39 -2.55016 39.74732 35016 ft 486 kts 181°
2026-04-30 06:40 -2.61774 39.74247 35024 ft 486 kts 181°
2026-04-30 06:40 -2.68532 39.73774 35019 ft 487 kts 181°
2026-04-30 06:41 -2.75304 39.73290 35018 ft 487 kts 181°
2026-04-30 06:41 -2.82064 39.72792 35016 ft 487 kts 182°
2026-04-30 06:42 -2.88798 39.72287 35012 ft 488 kts 181°
2026-04-30 06:42 -2.95567 39.71780 35017 ft 488 kts 181°
2026-04-30 06:43 -3.02345 39.71275 35011 ft 489 kts 181°
2026-04-30 06:43 -3.09140 39.70767 35009 ft 489 kts 181°
2026-04-30 06:44 -3.15925 39.70262 35012 ft 489 kts 181°
2026-04-30 06:44 -3.22719 39.69755 35015 ft 489 kts 181°
2026-04-30 06:45 -3.29500 39.69247 35007 ft 489 kts 181°
2026-04-30 06:45 -3.36284 39.68745 35013 ft 488 kts 181°
2026-04-30 06:46 -3.43041 39.68239 35019 ft 489 kts 181°
2026-04-30 06:46 -3.49829 39.67730 35014 ft 489 kts 181°
2026-04-30 06:47 -3.56616 39.67223 35017 ft 489 kts 181°
2026-04-30 06:47 -3.63404 39.66715 35016 ft 489 kts 181°
2026-04-30 06:48 -3.70160 39.66206 35019 ft 489 kts 181°
2026-04-30 06:48 -3.76938 39.65692 35014 ft 489 kts 181°
2026-04-30 06:49 -3.83726 39.65173 35015 ft 489 kts 181°
2026-04-30 06:49 -3.89398 39.64736 35020 ft 488 kts 181°
2026-04-30 06:50 -3.97240 39.63957 35011 ft 487 kts 187°
2026-04-30 06:50 -4.02786 39.62931 35020 ft 488 kts 187°
2026-04-30 06:51 -4.10592 39.61430 35024 ft 489 kts 187°
2026-04-30 06:51 -4.16158 39.60368 35021 ft 489 kts 187°
2026-04-30 06:52 -4.22848 39.59104 35023 ft 489 kts 187°
2026-04-30 06:52 -4.29554 39.57837 35020 ft 490 kts 187°
2026-04-30 06:53 -4.36251 39.56572 35022 ft 490 kts 187°
2026-04-30 06:53 -4.42916 39.55307 35021 ft 490 kts 187°
2026-04-30 06:54 -4.49624 39.54033 35023 ft 489 kts 187°
2026-04-30 06:54 -4.56324 39.52763 35026 ft 489 kts 187°
2026-04-30 06:55 -4.63013 39.51485 35024 ft 489 kts 187°
2026-04-30 06:55 -4.69652 39.50236 35027 ft 488 kts 186°
2026-04-30 06:56 -4.76377 39.49497 35023 ft 484 kts 181°
2026-04-30 06:56 -4.83101 39.48974 35028 ft 485 kts 181°
2026-04-30 06:57 -4.89850 39.48408 35032 ft 487 kts 181°
2026-04-30 06:57 -4.96603 39.47804 35030 ft 488 kts 181°
2026-04-30 06:58 -5.03378 39.47190 35032 ft 488 kts 181°
2026-04-30 06:58 -5.10150 39.46578 35035 ft 488 kts 181°
2026-04-30 06:59 -5.16928 39.45964 35039 ft 488 kts 181°
2026-04-30 06:59 -5.23646 39.45355 35040 ft 488 kts 181°
2026-04-30 07:00 -5.30413 39.44742 35039 ft 487 kts 181°
2026-04-30 07:00 -5.37166 39.44130 35044 ft 487 kts 181°
2026-04-30 07:01 -5.43919 39.43513 35047 ft 487 kts 181°
2026-04-30 07:01 -5.50670 39.42901 35044 ft 487 kts 181°
2026-04-30 07:02 -5.57416 39.42289 35047 ft 486 kts 181°
2026-04-30 07:02 -5.64153 39.41674 35047 ft 486 kts 181°
2026-04-30 07:03 -5.70846 39.41060 35051 ft 486 kts 181°
2026-04-30 07:03 -5.77584 39.40437 35047 ft 486 kts 181°
2026-04-30 07:04 -5.84320 39.39985 35058 ft 482 kts 173°
2026-04-30 07:04 -5.90777 39.41450 35053 ft 476 kts 155°
2026-04-30 07:05 -5.99319 39.46369 35047 ft 473 kts 146°
2026-04-30 07:05 -6.04958 39.49826 35049 ft 476 kts 147°
2026-04-30 07:06 -6.10676 39.53248 35047 ft 478 kts 147°
2026-04-30 07:06 -6.16422 39.56655 35046 ft 479 kts 147°
2026-04-30 07:07 -6.22164 39.60057 35042 ft 479 kts 147°
2026-04-30 07:07 -6.27855 39.63471 35048 ft 478 kts 146°
2026-04-30 07:08 -6.33449 39.67066 35039 ft 476 kts 144°
2026-04-30 07:08 -6.39023 39.70647 35042 ft 475 kts 145°
2026-04-30 07:09 -6.44615 39.74202 35042 ft 475 kts 145°
2026-04-30 07:09 -6.50211 39.77724 35044 ft 474 kts 146°
2026-04-30 07:10 -6.55793 39.81200 35044 ft 474 kts 146°
2026-04-30 07:10 -6.61420 39.84696 35043 ft 474 kts 146°
2026-04-30 07:11 -6.67039 39.88187 35044 ft 475 kts 146°
2026-04-30 07:11 -6.72667 39.91682 35042 ft 475 kts 146°
2026-04-30 07:12 -6.78293 39.95184 35041 ft 475 kts 146°
2026-04-30 07:12 -6.83908 39.98701 35040 ft 475 kts 146°
2026-04-30 07:13 -6.89480 40.02191 35041 ft 475 kts 146°
2026-04-30 07:13 -6.95099 40.05697 35042 ft 475 kts 146°
2026-04-30 07:14 -7.00721 40.09197 35043 ft 475 kts 146°
2026-04-30 07:14 -7.06347 40.12701 35043 ft 475 kts 146°
2026-04-30 07:15 -7.11975 40.16209 35044 ft 475 kts 145°
2026-04-30 07:15 -7.17591 40.19711 35046 ft 475 kts 145°
2026-04-30 07:16 -7.23214 40.23216 35042 ft 475 kts 145°
2026-04-30 07:16 -7.28801 40.26700 35039 ft 475 kts 145°
2026-04-30 07:17 -7.34428 40.30208 35041 ft 475 kts 145°
2026-04-30 07:18 -7.42859 40.35468 35042 ft 475 kts 145°
2026-04-30 07:18 -7.48490 40.38982 35041 ft 475 kts 145°
2026-04-30 07:19 -7.54116 40.42493 35042 ft 476 kts 145°
2026-04-30 07:19 -7.59748 40.46008 35041 ft 476 kts 145°
2026-04-30 07:20 -7.65375 40.49520 35043 ft 476 kts 145°
2026-04-30 07:20 -7.71012 40.53037 35043 ft 476 kts 145°
2026-04-30 07:21 -7.76613 40.56525 35040 ft 476 kts 145°
2026-04-30 07:21 -7.82251 40.60046 35041 ft 476 kts 145°
2026-04-30 07:22 -7.90612 40.65470 35040 ft 476 kts 144°
2026-04-30 07:22 -7.96136 40.69110 35042 ft 476 kts 144°
2026-04-30 07:23 -8.01710 40.72748 35040 ft 477 kts 144°
2026-04-30 07:23 -8.07289 40.76374 35041 ft 477 kts 144°
2026-04-30 07:24 -8.12871 40.79999 35042 ft 477 kts 144°
2026-04-30 07:24 -8.18458 40.83638 35039 ft 477 kts 144°
2026-04-30 07:25 -8.24076 40.87221 35043 ft 478 kts 145°
2026-04-30 07:25 -8.29762 40.90747 35043 ft 479 kts 145°
2026-04-30 07:26 -8.35409 40.94236 35043 ft 479 kts 145°
2026-04-30 07:26 -8.40754 40.97544 35040 ft 479 kts 145°
2026-04-30 07:27 -8.46449 41.01078 35038 ft 479 kts 145°
2026-04-30 07:27 -8.52146 41.04617 35037 ft 480 kts 145°
2026-04-30 07:28 -8.57803 41.08133 35038 ft 480 kts 145°
2026-04-30 07:28 -8.63491 41.11669 35037 ft 480 kts 145°
2026-04-30 07:29 -8.69183 41.15209 35039 ft 480 kts 145°
2026-04-30 07:29 -8.74882 41.18753 35036 ft 481 kts 145°
2026-04-30 07:30 -8.83426 41.24071 35037 ft 481 kts 145°
2026-04-30 07:31 -8.89129 41.27621 35036 ft 481 kts 145°
2026-04-30 07:31 -8.94801 41.31154 35037 ft 481 kts 145°
2026-04-30 07:32 -9.00515 41.34714 35041 ft 481 kts 145°
2026-04-30 07:32 -9.06226 41.38272 35038 ft 481 kts 145°
2026-04-30 07:33 -9.11928 41.41827 35033 ft 481 kts 145°
2026-04-30 07:33 -9.17631 41.45385 35037 ft 481 kts 145°
2026-04-30 07:34 -9.23295 41.48919 35037 ft 482 kts 145°
2026-04-30 07:34 -9.29024 41.52496 35040 ft 482 kts 145°
2026-04-30 07:35 -9.34731 41.56060 35032 ft 482 kts 145°
2026-04-30 07:35 -9.40450 41.59632 35035 ft 482 kts 145°
2026-04-30 07:36 -9.46138 41.63188 35035 ft 483 kts 145°
2026-04-30 07:36 -9.51867 41.66772 35037 ft 483 kts 145°
2026-04-30 07:37 -9.56623 41.69744 35036 ft 483 kts 145°
2026-04-30 07:37 -9.63280 41.73906 35033 ft 483 kts 145°
2026-04-30 07:38 -9.68076 41.76908 35034 ft 484 kts 145°
2026-04-30 07:38 -9.73766 41.80472 35033 ft 484 kts 145°
2026-04-30 07:39 -9.79497 41.84062 35036 ft 484 kts 145°
2026-04-30 07:39 -9.85228 41.87653 35035 ft 484 kts 145°
2026-04-30 07:40 -9.90958 41.91245 35030 ft 484 kts 145°
2026-04-30 07:40 -9.96693 41.94842 35032 ft 484 kts 145°
2026-04-30 07:41 -10.02391 41.98416 35033 ft 484 kts 145°
2026-04-30 07:41 -10.08133 42.02021 35034 ft 485 kts 145°
2026-04-30 07:42 -10.13871 42.05623 35031 ft 485 kts 145°
2026-04-30 07:42 -10.19606 42.09226 35033 ft 485 kts 145°
2026-04-30 07:43 -10.25357 42.12841 35033 ft 485 kts 145°
2026-04-30 07:43 -10.31072 42.16432 35034 ft 485 kts 145°
2026-04-30 07:44 -10.36816 42.20044 35033 ft 486 kts 145°
2026-04-30 07:44 -10.42560 42.23656 35030 ft 486 kts 145°
2026-04-30 07:45 -10.48306 42.27270 35031 ft 486 kts 145°
2026-04-30 07:45 -10.54050 42.30883 35031 ft 486 kts 145°
2026-04-30 07:46 -10.59797 42.34494 35026 ft 486 kts 145°
2026-04-30 07:46 -10.65561 42.38113 35030 ft 486 kts 145°
2026-04-30 07:47 -10.71293 42.41742 35032 ft 485 kts 143°
2026-04-30 07:47 -10.76522 42.45970 35031 ft 482 kts 133°
2026-04-30 07:48 -10.81098 42.50911 35027 ft 479 kts 129°
2026-04-30 07:48 -10.85604 42.55916 35030 ft 480 kts 130°
2026-04-30 07:49 -10.90156 42.60910 35029 ft 482 kts 130°
2026-04-30 07:49 -10.94741 42.65898 35030 ft 482 kts 130°
2026-04-30 07:50 -10.99334 42.70885 35030 ft 483 kts 130°
2026-04-30 07:50 -11.03897 42.75846 35027 ft 483 kts 130°
2026-04-30 07:51 -11.08483 42.80836 35028 ft 482 kts 130°
2026-04-30 07:51 -11.13070 42.85830 35030 ft 482 kts 130°
2026-04-30 07:52 -11.17652 42.90820 35030 ft 482 kts 130°
2026-04-30 07:52 -11.22228 42.95807 35025 ft 481 kts 130°
2026-04-30 07:53 -11.26801 43.00792 35024 ft 481 kts 130°
2026-04-30 07:53 -11.31376 43.05779 35023 ft 481 kts 130°
2026-04-30 07:54 -11.35920 43.10735 35019 ft 481 kts 130°
2026-04-30 07:54 -11.40497 43.15724 35022 ft 482 kts 130°
2026-04-30 07:55 -11.45077 43.20711 35024 ft 482 kts 130°
2026-04-30 07:55 -11.49652 43.25710 35022 ft 482 kts 129°
2026-04-30 07:56 -11.53782 43.31057 35014 ft 477 kts 121°
2026-04-30 07:56 -11.57407 43.36724 35028 ft 478 kts 120°
2026-04-30 07:57 -11.61046 43.42416 35015 ft 479 kts 120°
2026-04-30 07:57 -11.64701 43.48058 35022 ft 480 kts 121°
2026-04-30 07:58 -11.68401 43.53734 35025 ft 480 kts 121°
2026-04-30 07:58 -11.72102 43.59409 35025 ft 481 kts 121°
2026-04-30 07:59 -11.75806 43.65093 35024 ft 481 kts 121°
2026-04-30 07:59 -11.79506 43.70779 35017 ft 480 kts 121°
2026-04-30 08:00 -11.85026 43.79267 35023 ft 480 kts 121°
2026-04-30 08:00 -11.88715 43.84944 35021 ft 480 kts 121°
2026-04-30 08:01 -11.92409 43.90632 35026 ft 480 kts 121°
2026-04-30 08:01 -11.96093 43.96308 35023 ft 480 kts 121°
2026-04-30 08:02 -12.01626 44.04837 35024 ft 480 kts 121°
2026-04-30 08:03 -12.08993 44.16201 35025 ft 479 kts 121°
2026-04-30 08:04 -12.12655 44.21856 35028 ft 479 kts 121°
2026-04-30 08:04 -12.16331 44.27536 35024 ft 479 kts 121°
2026-04-30 08:05 -12.20002 44.33214 35020 ft 479 kts 121°
2026-04-30 08:05 -12.23677 44.38903 35018 ft 479 kts 120°
2026-04-30 08:06 -12.27356 44.44596 35018 ft 479 kts 121°
2026-04-30 08:06 -12.31025 44.50280 35019 ft 480 kts 120°
2026-04-30 08:07 -12.34706 44.55985 35016 ft 480 kts 120°
2026-04-30 08:07 -12.38381 44.61685 35017 ft 480 kts 120°
2026-04-30 08:08 -12.42029 44.67345 35019 ft 479 kts 120°
2026-04-30 08:08 -12.45700 44.73045 35019 ft 479 kts 120°
2026-04-30 08:09 -12.49365 44.78739 35018 ft 479 kts 120°
2026-04-30 08:09 -12.53029 44.84433 35016 ft 479 kts 120°
2026-04-30 08:10 -12.56694 44.90132 35017 ft 479 kts 120°
2026-04-30 08:10 -12.60361 44.95838 35018 ft 479 kts 120°
2026-04-30 08:11 -12.63988 45.01482 35017 ft 479 kts 120°
2026-04-30 08:11 -12.67623 45.07145 35013 ft 479 kts 120°
2026-04-30 08:12 -12.71290 45.12855 35021 ft 479 kts 120°
2026-04-30 08:12 -12.74958 45.18563 35016 ft 479 kts 120°
2026-04-30 08:13 -12.78620 45.24263 35022 ft 479 kts 120°
2026-04-30 08:13 -12.82460 45.29848 35012 ft 481 kts 127°
2026-04-30 08:14 -12.86814 45.35039 35018 ft 481 kts 128°
2026-04-30 08:14 -12.91217 45.40216 35018 ft 481 kts 128°
2026-04-30 08:15 -12.95612 45.45403 35016 ft 482 kts 128°
2026-04-30 08:15 -12.99972 45.50572 35012 ft 482 kts 128°
2026-04-30 08:16 -13.04353 45.55777 35010 ft 482 kts 128°
2026-04-30 08:16 -13.08729 45.60978 35011 ft 482 kts 128°
2026-04-30 08:17 -13.13110 45.66192 35011 ft 482 kts 128°
2026-04-30 08:17 -13.17498 45.71416 35012 ft 482 kts 128°
2026-04-30 08:18 -13.21884 45.76636 35010 ft 483 kts 128°
2026-04-30 08:18 -13.26273 45.81860 35011 ft 483 kts 128°
2026-04-30 08:19 -13.30631 45.87051 35008 ft 483 kts 128°
2026-04-30 08:19 -13.35022 45.92283 35007 ft 483 kts 128°
2026-04-30 08:20 -13.39410 45.97511 35014 ft 483 kts 128°
2026-04-30 08:20 -13.43804 46.02745 35010 ft 483 kts 128°
2026-04-30 08:21 -13.48199 46.07987 35010 ft 484 kts 128°
2026-04-30 08:21 -13.52567 46.13197 35010 ft 484 kts 128°
2026-04-30 08:22 -13.56965 46.18438 35012 ft 484 kts 128°
2026-04-30 08:22 -13.61349 46.23696 35010 ft 484 kts 128°
2026-04-30 08:23 -13.65719 46.28974 35004 ft 484 kts 128°
2026-04-30 08:23 -13.70096 46.34242 35006 ft 485 kts 128°
2026-04-30 08:24 -13.74485 46.39504 35004 ft 485 kts 128°
2026-04-30 08:24 -13.78876 46.44767 35005 ft 485 kts 128°
2026-04-30 08:25 -13.83271 46.50040 35005 ft 485 kts 128°
2026-04-30 08:25 -13.86924 46.54429 35006 ft 485 kts 128°
2026-04-30 08:26 -13.91315 46.59705 35007 ft 485 kts 128°
2026-04-30 08:26 -13.95717 46.64998 35003 ft 486 kts 128°
2026-04-30 08:27 -14.00086 46.70253 35005 ft 486 kts 128°
2026-04-30 08:27 -14.04482 46.75540 35010 ft 486 kts 128°
2026-04-30 08:28 -14.08852 46.80804 35009 ft 486 kts 128°
2026-04-30 08:28 -14.13253 46.86109 35008 ft 487 kts 128°
2026-04-30 08:29 -14.17664 46.91424 35006 ft 487 kts 128°
2026-04-30 08:29 -14.22071 46.96736 35009 ft 488 kts 128°
2026-04-30 08:30 -14.26457 47.02030 35005 ft 488 kts 128°
2026-04-30 08:30 -14.30862 47.07352 35004 ft 488 kts 128°
2026-04-30 08:31 -14.35270 47.12681 35005 ft 488 kts 128°
2026-04-30 08:31 -14.39685 47.18022 35007 ft 489 kts 128°
2026-04-30 08:32 -14.44098 47.23364 35002 ft 489 kts 128°
2026-04-30 08:32 -14.48518 47.28714 34999 ft 489 kts 128°
2026-04-30 08:33 -14.52903 47.34027 34998 ft 489 kts 128°
2026-04-30 08:33 -14.57310 47.39374 34998 ft 489 kts 128°
2026-04-30 08:34 -14.61722 47.44730 34994 ft 489 kts 128°
2026-04-30 08:34 -14.66128 47.50083 34997 ft 489 kts 128°
2026-04-30 08:35 -14.70539 47.55450 34992 ft 490 kts 128°
2026-04-30 08:35 -14.74951 47.60820 34986 ft 490 kts 128°
2026-04-30 08:36 -14.79366 47.66194 34989 ft 490 kts 128°
2026-04-30 08:36 -14.83786 47.71576 34986 ft 491 kts 128°
2026-04-30 08:37 -14.88179 47.76930 34984 ft 491 kts 128°
2026-04-30 08:37 -14.92586 47.82308 34982 ft 491 kts 128°
2026-04-30 08:38 -14.97012 47.87710 34980 ft 491 kts 128°
2026-04-30 08:38 -15.01432 47.93111 34982 ft 491 kts 128°
2026-04-30 08:39 -15.05853 47.98520 34981 ft 491 kts 128°
2026-04-30 08:39 -15.10265 48.03918 34984 ft 491 kts 128°
2026-04-30 08:40 -15.14654 48.09289 34987 ft 491 kts 128°
2026-04-30 08:40 -15.19068 48.14693 34988 ft 491 kts 128°
2026-04-30 08:41 -15.23483 48.20097 34991 ft 491 kts 128°
2026-04-30 08:41 -15.27901 48.25512 34994 ft 492 kts 128°
2026-04-30 08:42 -15.32320 48.30937 35007 ft 493 kts 128°
2026-04-30 08:42 -15.36750 48.36376 35000 ft 494 kts 128°
2026-04-30 08:43 -15.41196 48.41839 35010 ft 495 kts 128°
2026-04-30 08:43 -15.45613 48.47271 35012 ft 496 kts 128°
2026-04-30 08:44 -15.50019 48.52693 35013 ft 496 kts 128°
2026-04-30 08:44 -15.54477 48.58183 35022 ft 496 kts 128°
2026-04-30 08:45 -15.58905 48.63640 35019 ft 496 kts 128°
2026-04-30 08:45 -15.63346 48.69116 35030 ft 496 kts 129°
2026-04-30 08:46 -15.67798 48.74612 35038 ft 497 kts 129°
2026-04-30 08:46 -15.72244 48.80103 35037 ft 497 kts 129°
2026-04-30 08:47 -15.76693 48.85600 35054 ft 497 kts 129°
2026-04-30 08:47 -15.81111 48.91065 35056 ft 497 kts 129°
2026-04-30 08:48 -15.85562 48.96572 35064 ft 497 kts 129°
2026-04-30 08:48 -15.90013 49.02080 35073 ft 497 kts 129°
2026-04-30 08:49 -15.94439 49.07557 35075 ft 497 kts 129°
2026-04-30 08:49 -15.98896 49.13063 35081 ft 497 kts 129°
2026-04-30 08:50 -16.03339 49.18583 35090 ft 497 kts 128°
2026-04-30 08:50 -16.07753 49.24119 35090 ft 497 kts 128°
2026-04-30 08:51 -16.12172 49.29647 35093 ft 497 kts 129°
2026-04-30 08:51 -16.16606 49.35173 35095 ft 496 kts 129°
2026-04-30 08:52 -16.21010 49.40655 35377 ft 497 kts 129°
2026-04-30 08:52 -16.23228 49.43418 35766 ft 495 kts 129°
2026-04-30 08:52 -16.25425 49.46160 36133 ft 493 kts 128°
2026-04-30 08:52 -16.27624 49.48907 36441 ft 493 kts 128°
2026-04-30 08:53 -16.29815 49.51643 36751 ft 493 kts 128°
2026-04-30 08:53 -16.32012 49.54388 37009 ft 493 kts 128°
2026-04-30 08:53 -16.34219 49.57144 37042 ft 496 kts 128°
2026-04-30 08:54 -16.38636 49.62657 37077 ft 494 kts 128°
2026-04-30 08:54 -16.42991 49.68099 37076 ft 490 kts 128°
2026-04-30 08:55 -16.47349 49.73553 37075 ft 489 kts 128°
2026-04-30 08:55 -16.51703 49.79005 37073 ft 489 kts 128°
2026-04-30 08:56 -16.56057 49.84456 37075 ft 490 kts 128°
2026-04-30 08:56 -16.60426 49.89942 37073 ft 492 kts 128°
2026-04-30 08:57 -16.64768 49.95469 37066 ft 493 kts 128°
2026-04-30 08:57 -16.69112 50.00973 37063 ft 494 kts 128°
2026-04-30 08:58 -16.73502 50.06504 37060 ft 495 kts 129°
2026-04-30 08:58 -16.77909 50.12048 37062 ft 496 kts 129°
2026-04-30 08:59 -16.82326 50.17610 37059 ft 497 kts 129°
2026-04-30 08:59 -16.86743 50.23177 37055 ft 497 kts 129°
2026-04-30 09:00 -16.91124 50.28705 37053 ft 497 kts 129°
2026-04-30 09:00 -16.95536 50.34277 37052 ft 497 kts 129°
2026-04-30 09:01 -16.99945 50.39853 37054 ft 497 kts 129°
2026-04-30 09:01 -17.04354 50.45430 37046 ft 497 kts 129°
2026-04-30 09:02 -17.10935 50.53763 37053 ft 497 kts 129°
2026-04-30 09:02 -17.15344 50.59351 37046 ft 498 kts 129°
2026-04-30 09:03 -17.19753 50.64944 37052 ft 498 kts 129°
2026-04-30 09:03 -17.24174 50.70557 37047 ft 499 kts 129°
2026-04-30 09:04 -17.28566 50.76138 37053 ft 500 kts 129°
2026-04-30 09:04 -17.32991 50.81765 37059 ft 501 kts 129°
2026-04-30 09:05 -17.37425 50.87406 37048 ft 501 kts 129°
2026-04-30 09:05 -17.41823 50.93009 37049 ft 500 kts 129°
2026-04-30 09:06 -17.46235 50.98634 37048 ft 500 kts 129°
2026-04-30 09:06 -17.50650 51.04267 37048 ft 500 kts 129°
2026-04-30 09:07 -17.55062 51.09902 37049 ft 500 kts 129°
2026-04-30 09:07 -17.59470 51.15537 37048 ft 500 kts 129°
2026-04-30 09:08 -17.63883 51.21182 37050 ft 500 kts 129°
2026-04-30 09:08 -17.68288 51.26822 37043 ft 499 kts 129°
2026-04-30 09:09 -17.72692 51.32464 37050 ft 498 kts 129°
2026-04-30 09:09 -17.77073 51.38082 37051 ft 497 kts 129°
2026-04-30 09:10 -17.81421 51.43665 37050 ft 497 kts 129°
2026-04-30 09:10 -17.85797 51.49287 37045 ft 497 kts 129°
2026-04-30 09:11 -17.98277 51.65365 37049 ft 498 kts 129°
2026-04-30 09:11 -18.15822 51.88004 37054 ft 500 kts 129°
2026-04-30 09:12 -18.33386 52.10750 37051 ft 500 kts 129°
2026-04-30 09:12 -18.50875 52.33483 37038 ft 499 kts 129°
2026-04-30 09:13 -18.68217 52.56103 37050 ft 498 kts 129°
2026-04-30 09:13 -18.85567 52.78810 37046 ft 496 kts 129°
2026-04-30 09:14 -19.02829 53.01485 37040 ft 495 kts 129°
2026-04-30 09:14 -19.10525 53.11614 37040 ft 495 kts 129°
2026-04-30 09:15 -19.27752 53.34327 37044 ft 495 kts 129°
2026-04-30 09:15 -19.45198 53.56902 37045 ft 495 kts 130°
2026-04-30 09:16 -19.60227 53.76022 37051 ft 497 kts 130°
2026-04-30 09:16 -19.64647 53.81649 37046 ft 497 kts 130°
2026-04-30 09:17 -19.69104 53.87332 36229 ft 509 kts 130°
2026-04-30 09:17 -19.71373 53.90213 35447 ft 508 kts 131°
2026-04-30 09:17 -19.73644 53.93099 34556 ft 511 kts 131°
2026-04-30 09:18 -19.75926 53.96008 33554 ft 514 kts 131°
2026-04-30 09:18 -19.78214 53.98935 32515 ft 516 kts 131°
2026-04-30 09:18 -19.80508 54.01875 31486 ft 517 kts 131°
2026-04-30 09:18 -19.82797 54.04811 30625 ft 509 kts 131°
2026-04-30 09:19 -19.85017 54.07661 29904 ft 504 kts 131°
2026-04-30 09:19 -19.87246 54.10524 29119 ft 500 kts 131°
2026-04-30 09:19 -19.89450 54.13356 28415 ft 495 kts 131°
2026-04-30 09:19 -19.91636 54.16167 27739 ft 490 kts 131°
2026-04-30 09:20 -19.93799 54.18950 27082 ft 485 kts 131°
2026-04-30 09:20 -19.95944 54.21710 26440 ft 481 kts 130°
2026-04-30 09:20 -19.98067 54.24440 25795 ft 477 kts 130°
2026-04-30 09:20 -20.00170 54.27145 25153 ft 473 kts 130°
2026-04-30 09:21 -20.02264 54.29840 24508 ft 471 kts 130°
2026-04-30 09:21 -20.04342 54.32514 23862 ft 468 kts 130°
2026-04-30 09:21 -20.06415 54.35181 23160 ft 465 kts 131°
2026-04-30 09:21 -20.08468 54.37824 22474 ft 461 kts 130°
2026-04-30 09:22 -20.17341 54.49315 19797 ft 439 kts 131°
2026-04-30 09:22 -20.31444 54.67521 15281 ft 388 kts 130°
2026-04-30 09:22 -20.43662 54.83386 11244 ft 354 kts 129°
2026-04-30 09:22 -20.45202 54.85386 10976 ft 337 kts 129°
2026-04-30 09:23 -20.46627 54.87238 10794 ft 308 kts 129°
2026-04-30 09:23 -20.47916 54.88914 10664 ft 289 kts 128°
2026-04-30 09:23 -20.49187 54.90574 10546 ft 282 kts 128°
2026-04-30 09:23 -20.50404 54.92162 10446 ft 281 kts 128°
2026-04-30 09:24 -20.51666 54.93805 10342 ft 290 kts 128°
2026-04-30 09:24 -20.52961 54.95491 10227 ft 297 kts 128°
2026-04-30 09:24 -20.54283 54.97209 10117 ft 303 kts 128°
2026-04-30 09:24 -20.55624 54.98953 9810 ft 304 kts 128°
2026-04-30 09:25 -20.56956 55.00685 9462 ft 297 kts 128°
2026-04-30 09:25 -20.58238 55.02354 9098 ft 283 kts 128°
2026-04-30 09:25 -20.61675 55.06842 8233 ft 277 kts 128°
2026-04-30 09:25 -20.65513 55.11845 7305 ft 271 kts 128°
2026-04-30 09:26 -20.69575 55.17133 6218 ft 270 kts 128°
2026-04-30 09:26 -20.70771 55.18687 5839 ft 270 kts 128°
2026-04-30 09:26 -20.71928 55.20191 5482 ft 252 kts 128°
2026-04-30 09:26 -20.73009 55.21595 5206 ft 239 kts 128°
2026-04-30 09:27 -20.74049 55.22955 4935 ft 232 kts 128°
2026-04-30 09:27 -20.75038 55.24252 4692 ft 227 kts 128°
2026-04-30 09:27 -20.76040 55.25566 4431 ft 228 kts 128°
2026-04-30 09:27 -20.77022 55.26854 4365 ft 219 kts 127°
2026-04-30 09:28 -20.77863 55.28183 4160 ft 216 kts 118°
2026-04-30 09:28 -20.78555 55.29599 3921 ft 212 kts 115°
2026-04-30 09:28 -20.79190 55.30954 3844 ft 195 kts 114°
2026-04-30 09:28 -20.79782 55.32219 3660 ft 189 kts 114°
2026-04-30 09:29 -20.80373 55.33469 3429 ft 187 kts 114°
2026-04-30 09:29 -20.80956 55.34696 3200 ft 187 kts 114°
2026-04-30 09:29 -20.81545 55.35936 2957 ft 186 kts 114°
2026-04-30 09:29 -20.82125 55.37158 2710 ft 184 kts 114°
2026-04-30 09:30 -20.82702 55.38376 2483 ft 183 kts 114°
2026-04-30 09:30 -20.83278 55.39591 2250 ft 183 kts 114°
2026-04-30 09:30 -20.83847 55.40792 2026 ft 176 kts 113°
2026-04-30 09:30 -20.84378 55.41915 1807 ft 163 kts 112°
2026-04-30 09:31 -20.84868 55.42949 1630 ft 150 kts 111°
2026-04-30 09:31 -20.85351 55.43969 1485 ft 153 kts 112°
2026-04-30 09:31 -20.85837 55.44992 1270 ft 157 kts 112°
2026-04-30 09:31 -20.86332 55.46033 1047 ft 156 kts 112°
2026-04-30 09:32 -20.86819 55.47063 805 ft 155 kts 111°
2026-04-30 09:32 -20.87299 55.48078 605 ft 151 kts 112°
2026-04-30 09:32 -20.87770 55.49068 400 ft 148 kts 105°
2026-04-30 09:32 -20.88275 55.50063 202 ft 151 kts 103°
2026-04-30 09:33 -20.88733 55.51030 53 ft 130 kts 102°
2026-04-30 09:33 -20.89028 55.51714 68 ft 70 kts 116°
2026-04-30 09:33 -20.89147 55.51955 86 ft 4 kts 115°
2026-04-30 09:33 -20.89178 55.52024 84 ft 19 kts 116°
2026-04-30 09:34 -20.89237 55.52157 68 ft 20 kts 116°
2026-04-30 09:34 -20.89313 55.52219 69 ft 13 kts 193°
2026-04-30 09:34 -20.89392 55.52176 70 ft 6 kts 206°
2026-04-30 09:34 -20.89404 55.52120 69 ft 11 kts 278°
2026-04-30 09:35 -20.89374 55.52047 72 ft 10 kts 294°
2026-04-30 09:35 -20.89338 55.51982 67 ft 10 kts 299°
2026-04-30 09:35 -20.89304 55.51914 84 ft 10 kts 301°
2026-04-30 09:35 -20.89300 55.51907 84 ft 0 kts 302°
2026-04-30 09:36 -20.89300 55.51906 84 ft 1 kts 303°
2026-04-30 09:36 -20.89273 55.51859 85 ft 14 kts 291°
2026-04-30 09:36 -20.89265 55.51835 84 ft 2 kts 296°
2026-04-30 09:36 -20.89258 55.51821 85 ft 3 kts 298°
2026-04-30 09:37 -20.89237 55.51771 69 ft 11 kts 287°
2026-04-30 09:37 -20.89198 55.51693 65 ft 16 kts 300°
2026-04-30 09:37 -20.89143 55.51580 63 ft 17 kts 300°
2026-04-30 09:37 -20.89092 55.51464 62 ft 17 kts 294°
2026-04-30 09:38 -20.89041 55.51347 59 ft 17 kts 292°
2026-04-30 09:38 -20.88986 55.51233 58 ft 17 kts 299°
2026-04-30 09:38 -20.88954 55.51173 55 ft 6 kts 290°
2026-04-30 09:38 -20.88971 55.51134 54 ft 6 kts 224°
2026-04-30 09:39 -20.89008 55.51109 58 ft 6 kts 209°
2026-04-30 09:39 -20.89018 55.51103 59 ft 2 kts 209°
2026-04-30 09:39 -20.89021 55.51101 59 ft 0 kts 208°
2026-04-30 09:39 -20.89027 55.51098 56 ft 0 kts 208°